Location: Chervonnoye
(48.6000°N, 34.4000°E)
Time: 16:27:44
(UTC+00:00)

SMAP - Pass Details

Date: 23 November 2020
Orbit: 681 x 683 km, 98.1° (Epoch: 28 January)

Event Time Altitude Azimuth Distance (km) Brightness Sun altitude
Rises 15:21:38 0° 177° (S) 3,032 6.6 -14.1°
Reaches altitude 10° 15:23:54 10° 182° (S) 2,122 5.8 -14.4°
Maximum altitude 15:28:27 54° 260° (W) 829 3.9 -15.2°
Drops below altitude 10° 15:33:02 10° 338° (NNW) 2,139 5.7 -15.9°
Sets 15:35:21 0° 343° (NNW) 3,060 6.5 -16.3°
